Terminal Aerodrome Forecast
Issued by NWS King Salmon, AK

Home | Current Version | Previous Version | Text Only | Print | Product List | Glossary On
Versions: 1 2 3 4 5 6 7 8 9 10 11 12 13 14 15 16 17 18 19 20 21 22 23 24 25 26 27 28 29 30 31 32 33 34 35 36
909
FTAK31 PANC 261127
TAFAKN
TAF
PAKN 261127Z 2612/2712 VRB05KT P6SM VCSH SCT035 BKN060
     FM261400 09007KT P6SM -SHRA SCT030 OVC050
     FM270700 VRB02KT P6SM VCSH OVC050=

USA.gov is the U.S. government's official web portal to all federal, state and local government web resources and services.